Tracking 30264 objects as of 15-Feb-2025
HD Live streaming from Space Station
objects crossing your sky now

OBJECT A

Track OBJECT A now!
10-day predictions


NORAD ID: 53299
Int'l Code: 2022-087A
Perigee: 229.4 km
Apogee: 239.5 km
Inclination: 97.3 °
Period: 89.0 minutes
Semi major axis: 6605 km
RCS: Unknown
Launch date: July 27, 2022
Source: People's Republic of China (PRC)
Launch site: Jiuquan Satellite Launch Center, China (JSC)

Note: This is a ROCKET BODY
Your satellite tracking list
Your tracking list is empty




NASA's NSSDC Master Catalog

Two Line Element Set (TLE):
1 53299U 22087A   25046.75221852  .01596131  23491-5  10475-2 0  9995
2 53299  97.2837 139.1926 0007673 263.5084 224.6638 16.17140985143650
Source of the keplerian elements: AFSPC